Flag for Poland Weather past 2 weeks in Warsaw, Poland

Now
39 °F

Partly sunny.


Feels Like: 33 °F
Forecast: 32 / 44 °F
Wind: 9 mph from Southwest

Location: Warsaw Okecie Airport

Current Time: Apr 2, 2015 at 12:29:28 PM

Latest Report: Apr 2, 2015 at 11:30 AM


Visibility: N/A

Pressure: 29.59 "Hg

Humidity: 70%

Dew point: 30 °F

Location of WarsawLocation

Historic Weather in Warsaw — Graph

°F

Warsaw temperature yesterday

Maximum temperature yesterday: 45 °F (at 2:30 PM)
Minimum temperature yesterday: 37 °F (at 3:30 AM)
Average temperature yesterday: 40 °F

Past Weeks' High & Low Weather Summary

 TemperatureHumidityPressure
High68 °F (Mar 27, 11:30 AM)100% (Mar 20, 6:00 AM)30.57 "Hg (Mar 20, 6:00 AM)
Low21 °F (Mar 23, 2:30 AM)19% (Mar 18, 12:00 PM)29.12 "Hg (Mar 30, 7:30 AM)
Average44 °F65%29.86 "Hg
* Reported Mar 18 10:00 AM — Apr 2 11:30 AM, Warsaw, Weather by CustomWeather, © 2015

Note: Actual official high and low records may vary slightly from our data, if they occured in-between our weather recording intervals... More about our weather records

Advertising

Warsaw weather history for previous 24 hours

 ConditionsComfort  
Time TempWeatherWind HumidityBarometerVisibility
11:30 AM
Thu, Apr 2
39 °FPartly sunny.9 mph70%29.59 "HgN/A
11:00 AM37 °FPartly sunny.10 mph70%29.59 "HgN/A
10:30 AM37 °FBroken clouds.10 mph70%29.59 "HgN/A
10:00 AM36 °FPartly sunny.12 mph81%29.62 "HgN/A
9:30 AM36 °FPartly sunny.13 mph81%29.62 "HgN/A
9:00 AM36 °FBroken clouds.13 mph81%29.59 "HgN/A
8:30 AM37 °FPartly sunny.13 mph75%29.59 "HgN/A
8:00 AM36 °FBroken clouds.17 mph81%29.59 "HgN/A
7:30 AM36 °FPartly sunny.13 mph81%29.62 "HgN/A
7:00 AM34 °FPassing clouds.13 mph87%29.59 "HgN/A
5:30 AM34 °FPassing clouds.15 mph87%29.59 "HgN/A
1:00 AM34 °FSprinkles. Partly cloudy.15 mph93%29.56 "HgN/A
12:30 AM37 °FSprinkles. Passing clouds.16 mph87%29.56 "HgN/A
12:00 AM37 °FSprinkles. Passing clouds.15 mph87%29.56 "HgN/A
11:30 PM
Wed, Apr 1
37 °FSprinkles. Passing clouds.14 mph87%29.56 "HgN/A
11:00 PM37 °FSprinkles. Passing clouds.13 mph87%29.56 "HgN/A
10:30 PM37 °FPassing clouds.15 mph87%29.53 "HgN/A
10:00 PM37 °FPassing clouds.10 mph87%29.53 "HgN/A
9:30 PM39 °FPassing clouds.12 mph81%29.53 "HgN/A
9:00 PM37 °FPartly cloudy.10 mph87%29.53 "HgN/A
8:30 PM39 °FPartly cloudy.15 mph81%29.53 "HgN/A
8:00 PM39 °FScattered clouds.9 mph81%29.53 "HgN/A
7:30 PM39 °FPassing clouds.10 mph81%29.50 "HgN/A
7:00 PM41 °FScattered clouds.12 mph76%29.50 "HgN/A
6:30 PM39 °FPassing clouds.8 mph81%29.50 "HgN/A
6:00 PM39 °FScattered clouds.10 mph81%29.50 "HgN/A
5:30 PM41 °FBroken clouds.21 mph76%29.50 "HgN/A
5:00 PM41 °FSprinkles. Scattered clouds.26 mph70%29.47 "HgN/A
4:30 PM43 °FScattered clouds.23 mph76%29.47 "HgN/A
4:00 PM43 °FBroken clouds.23 mph76%29.45 "HgN/A
3:30 PM41 °FScattered clouds.23 mph81%29.45 "HgN/A
3:00 PM39 °FSprinkles. Scattered clouds.30 mph87%29.45 "HgN/A
2:30 PM45 °FScattered clouds.26 mph76%29.42 "HgN/A
2:00 PM43 °FPartly sunny.22 mph81%29.42 "HgN/A
1:30 PM43 °FSprinkles. Scattered clouds.17 mph81%29.42 "HgN/A
1:00 PM43 °FScattered clouds.18 mph76%29.42 "HgN/A
12:30 PM43 °FBroken clouds.22 mph76%29.42 "HgN/A
12:00 PM41 °FPartly sunny.22 mph81%29.42 "HgN/A
Weather by CustomWeather, © 2015

See weather overviewHow to use our weather pages